Location: Blangy-Tronville
(49.8790°N, 2.4226°E)
Time: 21:28:08
(UTC+00:00)

Cosmos 1602 - Pass Details

Date: 18 November 2025
Orbit: 367 x 375 km, 82.5° (Epoch: 10 December)

Event Time Altitude Azimuth Distance (km) Brightness Sun altitude
Rises 17:35:16 0° 351° (N) 2,293 7.0 -14.7°
Reaches altitude 10° 17:37:16 10° 352° (N) 1,436 5.9 -15.0°
Maximum altitude 17:40:23 80° 80° (E) 406 3.0 -15.5°
Drops below altitude 10° 17:43:30 10° 168° (SSE) 1,433 5.9 -16.0°
Sets 17:45:30 0° 169° (S) 2,287 7.0 -16.3°
